[[{"header":{"parameterUnit":"m.s-1","parameterCategory":1,"la1":30.2991,"la2":30.254,"lo1":-89.0895,"lo2":-89.0444,"dy":0.0017,"dx":0.0017,"nx":28,"ny":28,"refTime":"2025-08-07T09:00:00:Z","depth":0,"parameterNumber":2,"parameterNumberName":"U-component_of_WINDS"},"data":[0,0,0,0,0,0,0,0,0,0,0,0,0,0,0,0,0,0,0,0,0,0,0,0,0,0,0,0,0,0,0,0,0,0,0,0,0,0,0,0,0,0,0,0,0,0,0,0,0,0,0,0,0,0,0,0,0,0,0.872,0.8721,0,0.8788,0.8789,0.879,0.8807,0.8807,0.8806,0.8806,0.8877,0.8879,0.8881,0,0,0,0,0,0,0,0,0,0,0,0,0,0.8604,0.8606,0.872,0.8721,0.8721,0.8788,0.8789,0.879,0.8807,0.8807,0.8806,0.8806,0.8876,0.8878,0.8881,0,0,0,0,0,0,0,0,0,0,0,0,0,0.8661,0.8607,0.872,0.8738,0.8741,0.8788,0.8789,0.879,0.8807,0.8807,0.8806,0.8806,0.8875,0.8878,0.8882,0.8915,0,0,0.8892,0.8893,0,0,0,0,0,0,0,0,0.8658,0.8666,0.8735,0.8737,0.874,0.8788,0.8774,0.8832,0.8808,0.8782,0.8806,0.8805,0.8848,0.8853,0.8868,0.8919,0.8922,0.8892,0.8894,0.8896,0.8897,0,0,0,0,0,0,0,0.8654,0.8663,0.8747,0.8736,0.8739,0.8743,0.875,0.8785,0.8818,0.8784,0.8786,0.8793,0.8849,0.8864,0.8869,0.8923,0.8892,0.8895,0.8897,0.8899,0.9003,0.9004,0,0,0,0,0,0,0.8647,0.8659,0.8745,0.8749,0.8697,0.8746,0.8754,0.8773,0.8817,0.8823,0.8794,0.8794,0.8859,0.8865,0.8872,0.8913,0.8896,0.8899,0.8901,0.9002,0.9003,0.9004,0,0,0,0,0,0,0.8644,0.8654,0.8742,0.8705,0.8716,0.8748,0.877,0.8775,0.879,0.8825,0.8831,0.8804,0.8859,0.8867,0.8904,0.8916,0.8901,0.8904,0.9001,0.9003,0.9004,0.8996,0,0,0,0,0,0,0.8641,0.8653,0.8667,0.8705,0.8718,0.8773,0.8771,0.8777,0.8796,0.8797,0.8835,0.8841,0.8859,0.8899,0.8907,0.892,0.8906,0.9001,0.9002,0.9003,0.8996,0.8997,0.8998,0,0,0,0,0,0.8637,0.8663,0.8667,0.8678,0.8735,0.8774,0.8781,0.8801,0.8797,0.881,0.8832,0.884,0.8913,0.8902,0.8912,0.8926,0.9,0.9002,0.9003,0.8995,0.8997,0.8998,0,0,0,0,0,0,0.8626,0.8668,0.8674,0.8713,0.8739,0.8776,0.8794,0.8802,0.8831,0.883,0.8854,0.8862,0.8897,0.8916,0.8903,0.896,0.8957,0.896,0.8947,0.8949,0.895,0.8945,0.8909,0,0,0,0,0,0.8628,0.8655,0.8691,0.8721,0.8734,0.8762,0.8779,0.8792,0.8821,0.8832,0.8857,0.8884,0.8914,0.8932,0.8961,0.8998,0.9007,0.9013,0.9014,0.9015,0.9018,0.9038,0.9041,0.9009,0.9009,0.9009,0,0,0.8632,0.8659,0.8675,0.872,0.8742,0.877,0.8771,0.8801,0.8821,0.8837,0.8873,0.8891,0.8924,0.896,0.8978,0.8977,0.9028,0.9017,0.9018,0.902,0.904,0.9042,0.9045,0.901,0.901,0.901,0,0,0.8655,0.8678,0.8705,0.8727,0.876,0.8778,0.8784,0.882,0.8833,0.8869,0.8881,0.8906,0.8956,0.8978,0.8996,0.9025,0.9032,0.9034,0.904,0.9059,0.9062,0.9064,0.9073,0.9076,0.9036,0.9036,0.9036,0,0.8656,0.8698,0.8718,0.8747,0.8766,0.878,0.8808,0.8828,0.8869,0.8882,0.888,0.8942,0.8965,0.9006,0.9013,0.9027,0.9035,0.9029,0.906,0.9062,0.9064,0.9074,0.9077,0.9036,0.9036,0.9036,0.9036,0,0.8698,0.8727,0.8745,0.8783,0.8804,0.8832,0.8856,0.8875,0.8885,0.8903,0.8939,0.8967,0.9001,0.9012,0.9023,0.9054,0.9053,0.9055,0.9051,0.9067,0.9076,0.908,0.9036,0.9036,0.9036,0.9036,0,0,0.8716,0.8764,0.877,0.8787,0.8824,0.8846,0.8875,0.8907,0.8922,0.895,0.8974,0.9015,0.9017,0.9037,0.9051,0.9067,0.9087,0.9067,0.9069,0.9069,0.9122,0.9119,0.9123,0.9092,0.9093,0.9093,0.9119,0,0.8742,0.8792,0.881,0.8852,0.8878,0.8891,0.8915,0.8941,0.8958,0.8982,0.9001,0.903,0.9031,0.9043,0.906,0.9081,0.9098,0.9079,0.9114,0.9115,0.9105,0.9128,0.9126,0.9149,0.9123,0.9123,0.9124,0,0.8779,0.8806,0.885,0.8882,0.8894,0.8915,0.8946,0.8969,0.8998,0.9009,0.9031,0.9043,0.9072,0.9067,0.9107,0.9094,0.9109,0.9121,0.9123,0.9126,0.912,0.9132,0.9157,0.916,0.913,0.9129,0.9129,0,0.8786,0.8834,0.8865,0.888,0.8919,0.8933,0.895,0.8978,0.8996,0.9023,0.9034,0.9065,0.9081,0.9104,0.9124,0.9118,0.9162,0.9158,0.9171,0.9171,0.918,0.9179,0.9207,0.919,0.919,0.919,0.919,0,0.8813,0.8839,0.8869,0.8889,0.8918,0.8938,0.8966,0.8984,0.9008,0.9031,0.9045,0.9066,0.9091,0.9115,0.9131,0.9161,0.9169,0.9178,0.9182,0.9177,0.9176,0.9187,0.9186,0.9191,0.9191,0.9191,0.9191,0,0.8826,0.8847,0.8883,0.8916,0.8925,0.8945,0.8973,0.8993,0.901,0.9039,0.9046,0.9074,0.9103,0.9125,0.9163,0.9173,0.9205,0.921,0.9195,0.9197,0.9209,0.9207,0.9244,0.925,0.923,0.9231,0.9231,0,0.8842,0.8862,0.8897,0.8913,0.8929,0.8955,0.8973,0.8994,0.9012,0.9045,0.906,0.909,0.9115,0.9161,0.9184,0.9213,0.9218,0.9229,0.9222,0.9216,0.9217,0.9215,0.9217,0.923,0.923,0.923,0.923,0,0.8866,0.8875,0.8901,0.893,0.8951,0.8974,0.8998,0.9011,0.9035,0.9055,0.9085,0.9104,0.9142,0.9171,0.9202,0.922,0.9229,0.9232,0.9236,0.9231,0.9221,0.9225,0.9197,0.9231,0.9231,0.9231,0.923,0.923,0.8881,0.8899,0.8926,0.8953,0.8973,0.8995,0.9014,0.9033,0.9058,0.909,0.9101,0.9131,0.9158,0.92,0.9218,0.9241,0.9241,0.9248,0.925,0.9251,0.925,0.9218,0.9247,0.9247,0.9247,0.9247,0.9247,0,0.8905,0.8923,0.8948,0.8981,0.9002,0.9008,0.9034,0.9052,0.9078,0.9102,0.9126,0.9159,0.9187,0.9212,0.9241,0.9256,0.926,0.9263,0.9262,0.9265,0.9249,0.9242,0.9258,0.9258,0.9258,0.9258,0.9258,0.9258,0.8921,0.8951,0.8963,0.9003,0.902,0.9049,0.9064,0.9084,0.9103,0.9139,0.9162,0.9178,0.9202,0.9233,0.9259,0.9265,0.9275,0.9276,0.9284,0.9268,0.9266,0.9265,0.9258,0.9278,0.9278,0.9298,0.9298,0.9298]},{"header":{"parameterUnit":"m.s-1","parameterCategory":1,"la1":30.2991,"la2":30.254,"lo1":-89.0895,"lo2":-89.0444,"dy":0.0017,"dx":0.0017,"nx":28,"ny":28,"refTime":"2025-08-07T09:00:00:Z","depth":0,"parameterNumber":3,"parameterNumberName":"V-component_of_WINDS"},"data":[0,0,0,0,0,0,0,0,0,0,0,0,0,0,0,0,0,0,0,0,0,0,0,0,0,0,0,0,0,0,0,0,0,0,0,0,0,0,0,0,0,0,0,0,0,0,0,0,0,0,0,0,0,0,0,0,0,0,1.0622,1.0621,0,1.0572,1.0572,1.0571,1.05,1.0499,1.0498,1.0497,1.0447,1.0446,1.0446,0,0,0,0,0,0,0,0,0,0,0,0,0,1.0653,1.0653,1.0622,1.0621,1.062,1.0572,1.0572,1.0571,1.05,1.0499,1.0497,1.0496,1.0447,1.0446,1.0446,0,0,0,0,0,0,0,0,0,0,0,0,0,1.0625,1.0653,1.0622,1.0579,1.0575,1.0573,1.0572,1.0571,1.0501,1.0499,1.0497,1.0495,1.0447,1.0447,1.0446,1.0481,0,0,1.0445,1.0445,0,0,0,0,0,0,0,0,1.0627,1.0624,1.0586,1.0582,1.0577,1.054,1.0564,1.0541,1.0501,1.0529,1.0497,1.0494,1.0479,1.0476,1.0471,1.0479,1.0477,1.0445,1.0445,1.0445,1.0445,0,0,0,0,0,0,0,1.0629,1.0626,1.0602,1.0586,1.058,1.0562,1.0556,1.056,1.0515,1.0526,1.0521,1.0516,1.0477,1.0472,1.0469,1.0476,1.0445,1.0445,1.0445,1.0445,1.0508,1.0509,0,0,0,0,0,0,1.0637,1.0628,1.0604,1.0601,1.0598,1.0563,1.0557,1.0554,1.0515,1.0507,1.0518,1.0513,1.0473,1.047,1.0467,1.0504,1.0445,1.0445,1.0445,1.0506,1.0508,1.051,0,0,0,0,0,0,1.0638,1.0636,1.0606,1.0613,1.0608,1.0565,1.0563,1.0554,1.0549,1.0508,1.05,1.0521,1.0471,1.0468,1.0478,1.0501,1.0445,1.0444,1.0504,1.0506,1.0509,1.0579,0,0,0,0,0,0,1.0639,1.0637,1.065,1.0614,1.0608,1.0617,1.0564,1.0555,1.0549,1.0542,1.0509,1.0502,1.047,1.0479,1.0478,1.05,1.0444,1.0501,1.0505,1.0508,1.0574,1.0583,1.0591,0,0,0,0,0,1.0641,1.0672,1.0651,1.0648,1.0623,1.0619,1.0615,1.0578,1.0551,1.0563,1.0537,1.0503,1.0499,1.048,1.0478,1.0501,1.05,1.0504,1.0508,1.057,1.0582,1.0591,0,0,0,0,0,0,1.0713,1.0667,1.0643,1.0663,1.0646,1.0607,1.0622,1.0591,1.0581,1.0575,1.0529,1.0522,1.0537,1.052,1.05,1.0532,1.0494,1.0498,1.0542,1.0553,1.0561,1.0564,1.0444,0,0,0,0,0,1.0731,1.0732,1.0691,1.0714,1.0706,1.0666,1.0662,1.0634,1.0614,1.0606,1.0581,1.0562,1.0556,1.0554,1.0546,1.0571,1.0562,1.0586,1.0595,1.0602,1.0606,1.0615,1.0624,1.0523,1.0523,1.0523,0,0,1.0769,1.0744,1.0747,1.0727,1.071,1.0711,1.066,1.0663,1.0663,1.0607,1.0614,1.0595,1.0571,1.0588,1.0594,1.0574,1.0631,1.0607,1.0613,1.0613,1.062,1.063,1.0638,1.0526,1.0526,1.0525,0,0,1.0838,1.082,1.0835,1.0819,1.0793,1.0766,1.077,1.0735,1.072,1.0726,1.0683,1.0682,1.0674,1.0658,1.0649,1.071,1.0677,1.0709,1.0754,1.0764,1.0772,1.0778,1.0798,1.0806,1.0713,1.0713,1.0713,0,1.0889,1.0888,1.0847,1.0852,1.0844,1.0793,1.0807,1.0793,1.0767,1.0762,1.074,1.0727,1.0707,1.0718,1.0733,1.0728,1.0729,1.0712,1.0774,1.078,1.0786,1.0804,1.0812,1.0717,1.0716,1.0716,1.0716,0,1.095,1.095,1.0966,1.094,1.0934,1.0944,1.0904,1.0902,1.0874,1.0849,1.0855,1.083,1.0815,1.0816,1.079,1.0823,1.0811,1.0782,1.0743,1.08,1.0816,1.0823,1.0722,1.0721,1.072,1.0719,0,0,1.1064,1.1014,1.102,1.1007,1.0974,1.0973,1.0981,1.0966,1.0964,1.0948,1.0951,1.0944,1.0917,1.0906,1.0878,1.0886,1.0933,1.0856,1.0855,1.0869,1.0965,1.0986,1.0995,1.0912,1.0913,1.0914,1.0967,0,1.1125,1.1134,1.1096,1.1115,1.1113,1.1064,1.1069,1.1049,1.1026,1.102,1.0994,1.0989,1.0954,1.0947,1.0954,1.0926,1.0952,1.0922,1.0913,1.0913,1.0919,1.1004,1.1026,1.1077,1.0973,1.0974,1.0975,0,1.1198,1.1183,1.1202,1.1166,1.1164,1.117,1.1152,1.1148,1.1124,1.1106,1.1093,1.1059,1.1062,1.1026,1.1029,1.1009,1.1003,1.0989,1.099,1.0987,1.0947,1.1001,1.1093,1.11,1.0985,1.0984,1.0983,0,1.1276,1.1262,1.127,1.1261,1.122,1.1224,1.1207,1.1181,1.1174,1.1159,1.1153,1.1139,1.113,1.1119,1.1082,1.1059,1.1088,1.1049,1.1072,1.1073,1.1079,1.1079,1.117,1.1079,1.1078,1.1078,1.1078,0,1.1347,1.136,1.1304,1.1309,1.1321,1.1278,1.129,1.1269,1.1245,1.1244,1.1201,1.1201,1.1153,1.1147,1.1118,1.1123,1.112,1.1105,1.1096,1.1107,1.1109,1.1102,1.1097,1.108,1.108,1.1079,1.1079,0,1.1436,1.14,1.1405,1.1366,1.1356,1.1366,1.1332,1.1334,1.1307,1.1306,1.1304,1.1262,1.1252,1.1214,1.1196,1.1176,1.119,1.1176,1.1198,1.1193,1.1217,1.1214,1.1305,1.1314,1.1219,1.122,1.1221,0,1.1484,1.1492,1.1452,1.1448,1.1433,1.1428,1.142,1.1377,1.137,1.1342,1.1347,1.1334,1.1322,1.1309,1.1276,1.1261,1.1245,1.1278,1.1242,1.1252,1.1243,1.1242,1.1242,1.1285,1.1286,1.1287,1.1288,0,1.157,1.1551,1.1542,1.1525,1.1516,1.1501,1.1484,1.1483,1.1435,1.1429,1.1419,1.1409,1.139,1.1377,1.1356,1.1338,1.1304,1.1299,1.1303,1.1314,1.1326,1.1318,1.1217,1.1297,1.1296,1.1296,1.1295,1.1295,1.1638,1.1642,1.1615,1.1605,1.1587,1.1571,1.157,1.1543,1.1534,1.1514,1.1489,1.1482,1.1455,1.1424,1.1408,1.14,1.1382,1.1389,1.139,1.1392,1.1396,1.1329,1.1397,1.1396,1.1396,1.1396,1.1396,0,1.1721,1.17,1.1692,1.1668,1.1659,1.1629,1.1607,1.1602,1.1596,1.1574,1.1562,1.1549,1.1535,1.1501,1.1484,1.1485,1.1469,1.1481,1.148,1.1476,1.1415,1.1412,1.1494,1.1494,1.1494,1.1494,1.1494,1.1494,1.1763,1.1767,1.1745,1.174,1.1719,1.1711,1.1701,1.1685,1.1667,1.1654,1.1643,1.1621,1.1593,1.1573,1.1559,1.1549,1.1544,1.1562,1.1547,1.149,1.1481,1.1472,1.1469,1.1562,1.1562,1.1608,1.1609,1.1609]}]]